Wind_Speed
6 6 6 6 6 7 15 18 15 9 5 7 5 7 8 14 7 4 11 15 16 21 22 26 25 23 21 18 18 18 14 11 11 13 12 13 14 15 17 16 17 15 16 14 12 14 13 8 7
7 9 7 5 7 13 13 18 19 8 4 3 2 6 6 9 5 4 7 19 18 20 25 27 24 23 19 16 16 17 15 12 12 11 11 11 11 12 12 14 14 12 12 12 10 7 8 9 7
9 10 7 5 11 17 14 5 6 2 2 3 4 4 5 1 2 6 7 18 20 21 28 27 25 24 18 14 14 18 16 12 10 10 11 11 12 12 12 11 7 4 4 7 9 9 7 6 5
7 6 8 9 18 16 17 11 3 2 4 8 8 5 3 10 4 8 13 20 19 26 27 27 22 24 18 15 14 19 16 11 8 8 10 11 11 11 9 9 9 7 6 5 5 6 8 7 7
8 9 10 15 21 23 19 13 11 11 7 7 11 6 3 7 13 9 16 19 20 30 29 24 21 20 21 16 13 15 15 11 9 9 11 10 9 8 8 8 7 6 6 6 6 6 6 6 7
10 7 10 15 21 21 19 20 19 18 18 8 8 10 4 10 13 14 16 19 23 30 29 25 22 18 19 18 16 15 14 14 11 12 14 13 11 9 8 7 6 5 6 5 5 5 6 6 7
15 10 15 19 20 20 16 11 14 16 18 16 7 8 4 11 14 17 17 21 27 31 30 27 22 22 21 21 19 19 18 17 16 17 19 17 15 12 10 8 8 7 7 6 5 4 4 5 8
14 11 19 18 19 22 12 2 8 11 18 2 11 6 6 13 17 19 19 23 28 31 30 29 27 25 26 24 23 23 22 21 19 18 14 11 9 9 10 9 10 9 8 8 8 6 5 6 6
12 8 14 25 20 18 2 5 7 5 9 3 7 5 3 12 16 19 19 26 30 31 30 31 30 29 29 27 25 23 20 15 12 13 12 10 8 6 7 7 8 8 8 8 8 7 7 7 9
13 12 21 20 16 14 14 9 14 6 10 13 11 10 11 12 17 21 21 29 33 33 33 32 31 32 32 28 22 22 18 16 16 15 13 13 11 8 7 7 8 9 9 8 7 7 7 8 10
12 21 19 19 9 11 15 17 12 12 16 19 18 17 16 16 19 22 22 25 35 35 34 33 34 32 30 26 21 19 16 17 17 16 15 12 11 10 9 8 7 6 7 7 6 6 7 8 10
16 22 26 24 22 12 15 20 20 16 29 22 11 10 21 21 23 23 23 24 31 38 36 36 34 32 30 26 22 19 16 15 15 15 14 13 11 10 9 8 7 6 5 6 5 5 4 6 9
21 21 21 20 17 22 21 23 21 27 30 21 16 9 20 21 22 22 22 23 26 34 38 36 36 33 29 24 21 18 17 16 15 15 14 12 11 9 9 8 7 7 6 6 6 5 5 5 7
5 16 19 19 23 20 18 19 20 28 19 22 22 14 17 20 22 21 25 27 28 28 36 39 36 33 29 25 22 19 18 17 15 14 13 11 10 9 8 7 6 6 6 6 6 6 6 5 6
13 14 16 19 24 17 12 16 19 29 23 24 18 18 18 20 21 26 25 26 27 28 27 31 36 34 30 28 23 20 18 17 15 14 12 11 10 9 8 7 6 6 6 6 6 5 5 6 7
8 14 14 6 11 6 8 14 10 13 6 10 14 16 18 19 20 21 22 25 26 27 30 28 28 31 31 28 26 22 18 17 16 15 14 12 11 10 9 9 8 7 6 6 5 4 4 4 6
15 14 17 15 12 5 13 11 4 2 4 9 10 11 14 16 19 21 23 24 28 28 29 31 31 32 32 30 26 22 19 18 16 15 14 12 11 10 7 5 4 3 2 3 3 5 6 4 3
13 18 17 13 5 8 12 16 15 20 14 18 17 15 13 14 15 18 22 24 25 28 29 29 31 31 32 30 27 23 20 18 16 15 15 13 11 9 7 7 6 6 6 5 4 3 3 4 5
20 19 17 14 9 8 16 19 18 18 19 20 20 17 15 12 12 14 19 21 24 27 29 29 31 33 33 31 28 24 21 19 16 15 14 12 10 8 7 7 7 6 5 5 5 6 5 4 5
16 17 17 14 7 6 15 20 18 17 16 12 7 8 9 9 7 12 17 20 23 26 27 29 28 31 31 30 27 23 21 18 16 16 14 13 11 9 7 6 5 4 3 3 3 4 3 3 6
14 15 12 11 6 11 14 17 20 5 9 8 10 8 7 6 5 10 15 18 20 23 26 27 27 29 29 28 26 23 20 18 17 17 16 15 13 11 9 7 6 5 4 3 3 3 5 1 2
12 5 2 6 4 7 1 7 11 10 9 9 8 7 8 8 4 7 11 15 17 20 24 26 26 27 25 26 28 26 23 21 17 16 16 15 13 11 9 8 7 6 4 3 2 3 3 4 1
2 3 2 6 10 12 14 7 3 8 9 7 7 9 8 7 6 6 9 12 14 17 22 25 26 28 26 29 26 25 19 18 19 17 16 15 13 10 9 8 6 5 4 4 3 2 2 3 3
2 2 3 3 4 6 17 14 2 3 2 2 7 10 8 6 6 7 8 11 13 17 22 24 25 27 27 28 25 23 21 21 21 19 17 15 13 10 8 6 5 4 4 4 3 3 2 2 3
2 4 4 5 6 5 5 6 3 4 3 3 4 6 6 4 5 6 8 11 15 17 19 23 25 26 25 25 23 22 21 20 19 18 17 15 12 8 6 4 4 3 3 3 3 4 4 4 4
9 7 6 6 5 3 5 5 2 3 2 1 2 2 2 3 4 5 6 8 12 17 20 21 25 26 27 26 24 21 21 18 16 15 12 10 7 4 4 4 3 4 4 5 5 5 6 6 6
5 6 2 5 9 7 9 2 4 6 4 2 2 3 5 4 3 3 5 6 8 12 19 21 24 26 26 27 26 24 21 19 15 13 12 10 10 10 9 12 12 11 9 8 7 8 8 8 8
3 3 3 3 5 10 8 8 3 8 6 3 4 6 5 5 3 1 4 6 8 10 13 21 22 28 27 27 25 24 21 18 18 16 16 15 16 14 10 11 11 10 9 9 9 9 9 9 9
4 4 4 3 6 8 11 4 6 9 10 8 4 6 6 7 6 1 1 3 5 8 12 16 25 24 30 28 25 19 19 18 17 15 14 14 16 16 14 12 10 9 9 9 9 9 9 9 10
2 4 4 5 7 3 6 10 6 7 8 6 4 8 5 3 3 1 2 5 7 9 11 14 17 25 26 24 23 23 24 22 19 19 16 16 15 13 11 10 9 8 9 9 10 10 11 11 11
Wind_Direction
212 165 159 181 229 233 249 241 262 233 300 258 310 209 259 241 272 236 153 168 154 159 169 177 174 177 177 173 175 177 173 168 159 149 148 145 152 154 147 148 142 143 136 141 144 140 137 130 142
199 173 167 229 247 237 242 239 248 245 263 85 258 267 263 249 64 132 152 171 156 165 173 175 184 184 172 167 180 195 195 191 187 180 183 173 168 177 178 176 170 170 156 147 156 162 185 150 123
182 194 219 219 236 243 257 19 320 92 137 182 220 244 287 49 133 169 192 170 160 183 173 175 187 182 164 155 178 209 212 202 201 205 202 201 199 194 198 196 210 218 192 187 185 183 199 174 166
180 203 252 240 241 246 255 271 152 196 208 216 219 241 198 209 149 177 183 173 173 169 177 182 186 194 177 172 179 216 220 216 214 224 217 218 219 223 223 225 230 226 230 229 216 208 203 202 192
195 237 246 235 250 253 255 241 258 242 251 205 196 223 198 222 212 194 181 175 175 172 174 176 186 193 200 188 167 203 209 204 198 199 202 205 208 212 218 223 231 231 234 239 234 227 219 216 190
202 241 241 245 251 251 251 253 244 237 253 209 210 248 222 218 199 185 182 181 178 180 178 184 192 189 186 183 164 157 175 182 187 202 204 199 194 196 204 213 215 229 238 226 228 225 223 223 206
232 223 249 261 267 275 279 239 242 252 250 228 224 224 174 201 189 181 178 185 184 182 184 179 189 188 180 180 162 157 159 175 189 186 199 191 192 193 201 212 222 220 222 243 233 219 213 214 218
225 250 259 251 256 265 294 308 236 261 258 15 192 242 216 192 189 177 184 185 181 186 191 189 182 180 183 177 175 177 181 206 217 220 218 215 215 213 222 225 229 237 245 243 244 231 220 214 210
215 235 242 246 249 260 240 239 200 245 253 230 211 265 190 185 181 176 186 182 185 188 194 197 193 191 190 189 193 210 213 223 220 215 213 217 217 225 244 253 258 256 247 251 252 249 229 211 202
211 226 239 249 268 282 274 222 264 217 224 229 232 237 216 204 188 188 192 187 185 189 188 193 195 195 195 202 213 221 221 207 197 200 203 208 214 228 237 248 260 266 272 268 255 248 248 231 215
225 243 250 265 265 278 276 271 257 251 256 249 247 220 220 206 199 198 200 197 191 193 195 196 199 206 206 211 221 216 207 191 189 195 205 211 215 221 230 236 243 250 266 275 277 265 241 228 218
241 240 251 267 273 278 265 272 263 247 254 271 290 255 219 213 212 203 197 192 193 195 198 201 201 203 208 213 214 211 200 195 195 199 199 199 203 208 213 227 237 244 254 266 272 269 257 231 217
234 247 261 256 265 263 267 262 269 262 265 263 256 218 214 214 212 206 200 195 193 198 199 201 204 202 208 208 209 202 203 202 203 201 201 201 201 201 206 211 222 234 240 242 249 257 252 243 238
262 254 261 261 255 257 249 258 251 256 262 256 247 219 222 218 212 203 200 197 194 192 201 204 205 209 209 206 207 203 200 203 201 200 199 200 201 203 204 211 218 225 237 245 243 238 239 233 226
262 259 262 250 250 244 258 261 244 252 266 258 244 231 234 226 212 210 205 199 195 194 189 196 203 206 208 210 206 206 206 203 204 202 200 200 200 201 203 206 211 217 219 224 233 234 223 223 224
242 238 256 242 221 210 190 262 263 224 260 233 238 234 234 228 221 214 205 199 195 192 192 193 194 202 205 206 206 206 204 202 202 204 204 204 203 201 202 205 205 202 199 200 209 219 243 230 214
230 256 242 242 177 184 208 272 202 186 232 238 234 236 226 222 217 209 203 199 197 194 193 196 197 202 204 206 205 205 202 202 201 201 202 203 205 207 209 214 223 233 236 235 202 195 195 193 226
237 244 242 256 166 214 230 247 263 268 241 257 263 257 226 224 221 207 199 198 195 192 195 196 198 199 202 203 202 200 196 196 197 198 202 201 200 198 197 198 200 206 211 213 216 230 228 202 190
271 272 267 267 253 243 254 261 262 260 255 260 263 259 259 232 211 200 196 194 191 191 192 191 193 197 201 198 196 194 189 191 189 194 194 195 194 196 199 204 209 211 208 198 196 196 194 203 184
241 249 253 262 271 251 267 272 273 263 269 291 312 15 342 313 249 190 190 191 192 190 190 189 190 193 196 198 194 192 188 185 189 193 188 192 195 191 191 195 202 207 207 196 177 174 173 186 184
235 241 251 268 312 257 269 278 263 97 99 76 53 44 12 335 248 195 191 191 189 191 191 188 185 188 191 192 186 178 181 179 183 183 190 191 195 196 197 195 193 191 191 200 191 172 163 149 180
245 23 301 282 275 275 256 281 291 180 142 65 34 33 34 36 91 166 184 188 190 191 190 188 186 184 182 181 187 188 185 181 180 181 188 190 193 195 196 195 197 202 200 204 202 192 177 151 189
29 34 341 284 271 284 256 255 215 153 141 35 28 37 45 53 85 134 167 180 185 186 187 187 187 184 181 188 191 188 181 175 181 178 185 186 191 194 193 196 199 202 208 216 221 214 200 193 185
84 295 267 285 260 253 242 203 159 106 61 63 48 50 44 54 89 121 148 164 174 180 183 185 188 184 188 192 192 184 181 182 183 181 179 182 190 193 195 198 205 209 217 224 230 236 241 242 236
196 209 225 206 194 248 121 224 3 69 86 67 46 32 35 72 91 117 143 159 171 177 181 184 186 185 190 186 186 179 179 185 182 179 183 185 187 186 187 200 214 226 237 248 262 273 278 276 273
203 257 270 277 294 320 163 232 150 113 106 21 324 309 109 78 103 124 146 161 175 188 182 184 188 188 191 188 183 185 190 184 184 184 188 176 170 213 231 230 265 269 253 245 246 257 266 271 269
160 216 7 308 264 269 251 112 118 132 119 96 58 72 65 68 89 133 148 161 173 181 190 188 188 195 192 192 191 193 192 188 195 192 200 210 208 200 220 231 229 233 241 251 264 267 273 276 281
299 14 249 195 262 255 250 266 152 170 153 131 77 58 52 51 51 128 167 167 170 176 189 192 191 203 196 193 193 194 191 189 184 181 194 206 222 230 221 235 234 235 243 251 256 258 260 265 269
209 229 206 292 268 264 272 264 345 148 137 119 47 17 344 341 353 11 165 176 182 183 187 198 202 205 198 198 196 195 185 189 218 209 211 224 228 219 217 218 224 231 241 248 253 258 264 268 268
332 293 322 257 258 312 288 272 28 80 107 110 28 333 337 329 327 262 161 172 176 176 179 186 196 211 209 202 199 197 206 210 205 205 204 211 213 213 216 219 226 237 246 256 260 261 265 266 268
Height
1495 1496 1499 1502 1501 1488 1477 1471 1460 1460 1471 1469 1472 1471 1471 1469 1471 1481 1486 1485 1490 1492 1495 1499 1503 1506 1509 1511 1511 1513 1515 1517 1519 1521 1523 1523 1526 1527 1527 1528 1529 1530 1532 1534 1535 1536 1537 1538 1539
1496 1497 1499 1496 1494 1482 1470 1458 1459 1465 1467 1473 1476 1476 1477 1474 1478 1479 1482 1483 1489 1491 1493 1498 1502 1505 1509 1511 1512 1514 1515 1517 1519 1521 1523 1524 1525 1528 1528 1529 1529 1528 1531 1533 1534 1537 1538 1539 1540
1496 1499 1497 1489 1479 1475 1466 1457 1461 1465 1473 1475 1476 1478 1476 1476 1479 1480 1480 1483 1488 1488 1492 1498 1501 1505 1508 1511 1513 1514 1516 1518 1520 1521 1522 1524 1525 1526 1527 1529 1530 1531 1533 1534 1536 1537 1538 1539 1540
1497 1498 1495 1484 1471 1460 1460 1455 1468 1471 1475 1476 1475 1475 1476 1476 1477 1478 1478 1482 1485 1487 1492 1497 1501 1504 1507 1510 1512 1513 1516 1518 1519 1520 1521 1523 1524 1525 1527 1529 1530 1531 1533 1535 1537 1538 1539 1540 1540
1494 1492 1486 1477 1468 1459 1455 1457 1462 1467 1467 1470 1474 1469 1472 1473 1474 1475 1477 1480 1483 1487 1492 1496 1500 1503 1507 1509 1511 1513 1515 1517 1518 1519 1520 1522 1523 1524 1526 1528 1530 1530 1531 1534 1536 1538 1539 1539 1541
1491 1487 1479 1471 1460 1453 1453 1455 1460 1464 1464 1467 1472 1468 1470 1469 1471 1474 1476 1478 1481 1486 1490 1495 1499 1502 1505 1508 1510 1512 1514 1515 1517 1518 1518 1520 1521 1523 1525 1526 1528 1530 1532 1533 1535 1537 1538 1539 1541
1484 1479 1474 1466 1459 1452 1448 1450 1456 1461 1461 1460 1466 1464 1467 1467 1470 1472 1475 1476 1480 1485 1489 1493 1497 1500 1504 1506 1508 1510 1511 1513 1514 1515 1515 1517 1519 1522 1523 1525 1527 1529 1531 1532 1534 1537 1538 1539 1540
1481 1479 1473 1463 1459 1453 1452 1454 1459 1462 1459 1459 1463 1461 1461 1464 1466 1471 1472 1475 1480 1484 1488 1492 1494 1497 1501 1503 1505 1506 1508 1510 1512 1515 1518 1519 1520 1521 1522 1525 1526 1528 1529 1531 1534 1535 1537 1539 1539
1479 1475 1467 1453 1453 1449 1451 1457 1459 1461 1461 1461 1462 1463 1463 1462 1465 1469 1470 1474 1478 1482 1487 1490 1492 1494 1498 1500 1502 1505 1508 1511 1514 1516 1517 1518 1519 1521 1523 1525 1526 1527 1529 1531 1532 1533 1536 1536 1539
1474 1465 1453 1447 1446 1447 1447 1454 1457 1460 1458 1458 1461 1461 1461 1461 1463 1465 1467 1471 1476 1480 1484 1488 1491 1492 1494 1499 1502 1505 1507 1509 1512 1514 1516 1517 1519 1521 1522 1524 1525 1526 1527 1529 1530 1531 1534 1535 1537
1464 1456 1448 1447 1451 1453 1454 1453 1456 1457 1453 1450 1453 1457 1458 1459 1460 1462 1464 1468 1473 1478 1482 1486 1488 1491 1495 1497 1501 1503 1506 1507 1509 1512 1514 1517 1518 1519 1521 1522 1523 1526 1527 1528 1529 1530 1530 1533 1536
1459 1452 1452 1450 1450 1453 1452 1453 1449 1451 1446 1450 1451 1452 1451 1454 1457 1460 1464 1468 1469 1474 1480 1483 1487 1490 1493 1496 1499 1502 1505 1507 1509 1511 1513 1515 1516 1518 1520 1521 1523 1524 1525 1526 1527 1529 1532 1533 1534
1450 1448 1447 1446 1449 1448 1450 1448 1448 1445 1445 1447 1448 1449 1448 1450 1453 1457 1462 1467 1469 1471 1476 1480 1484 1488 1490 1495 1497 1501 1503 1505 1508 1510 1512 1514 1515 1517 1519 1520 1522 1523 1524 1525 1527 1528 1529 1531 1532
1444 1445 1446 1444 1443 1444 1445 1442 1444 1435 1440 1441 1442 1444 1448 1448 1449 1453 1456 1461 1464 1468 1472 1476 1480 1484 1488 1492 1496 1499 1502 1504 1506 1509 1511 1513 1515 1517 1519 1520 1521 1522 1523 1525 1526 1527 1528 1529 1531
1447 1447 1443 1439 1438 1440 1442 1438 1431 1430 1433 1432 1436 1439 1443 1445 1446 1447 1452 1457 1461 1466 1471 1473 1477 1481 1485 1490 1493 1496 1499 1503 1505 1508 1510 1512 1514 1515 1517 1519 1519 1521 1522 1523 1525 1526 1528 1529 1530
1447 1442 1439 1423 1428 1434 1442 1427 1419 1424 1426 1428 1431 1433 1437 1440 1442 1445 1448 1452 1457 1461 1465 1470 1474 1477 1482 1486 1490 1493 1497 1500 1503 1506 1508 1510 1512 1513 1515 1517 1518 1520 1521 1522 1523 1525 1526 1527 1529
1436 1431 1424 1421 1424 1430 1437 1424 1417 1422 1425 1425 1426 1428 1431 1434 1436 1440 1444 1447 1451 1456 1460 1464 1469 1473 1478 1482 1487 1491 1495 1498 1501 1504 1507 1509 1511 1512 1514 1515 1516 1517 1519 1520 1522 1524 1525 1526 1527
1425 1419 1415 1422 1424 1432 1429 1426 1420 1419 1421 1419 1421 1422 1426 1430 1433 1435 1439 1442 1447 1452 1456 1460 1464 1470 1474 1479 1483 1488 1492 1496 1500 1502 1505 1508 1510 1512 1513 1514 1516 1517 1518 1519 1521 1522 1523 1525 1526
1420 1418 1417 1415 1416 1425 1422 1418 1415 1414 1414 1414 1414 1417 1419 1423 1428 1432 1436 1439 1444 1449 1452 1456 1460 1464 1469 1474 1479 1485 1489 1494 1498 1500 1503 1506 1508 1510 1512 1513 1515 1516 1517 1519 1520 1521 1522 1524 1524
1420 1422 1418 1414 1415 1422 1418 1410 1407 1407 1409 1412 1413 1418 1422 1425 1428 1430 1433 1437 1441 1445 1450 1454 1458 1461 1467 1472 1478 1484 1487 1492 1496 1498 1502 1505 1507 1509 1511 1513 1514 1515 1517 1517 1519 1520 1521 1523 1524
1422 1419 1415 1415 1416 1420 1419 1407 1392 1409 1414 1419 1420 1422 1425 1426 1427 1430 1433 1436 1440 1444 1449 1453 1457 1460 1465 1470 1476 1481 1486 1490 1493 1497 1500 1503 1506 1509 1511 1513 1514 1516 1517 1518 1519 1520 1521 1522 1523
1417 1423 1423 1427 1428 1420 1418 1405 1389 1398 1412 1420 1425 1426 1425 1426 1427 1429 1433 1437 1440 1444 1449 1453 1456 1460 1464 1469 1473 1478 1481 1486 1491 1495 1498 1502 1505 1508 1510 1512 1514 1515 1516 1518 1519 1520 1521 1521 1522
1422 1428 1427 1428 1428 1424 1418 1425 1390 1394 1407 1425 1428 1426 1426 1427 1427 1430 1433 1436 1440 1445 1448 1452 1456 1459 1463 1466 1471 1476 1481 1486 1489 1493 1496 1500 1504 1506 1509 1511 1513 1515 1516 1517 1518 1519 1520 1521 1521
1433 1431 1430 1432 1432 1433 1410 1410 1391 1405 1422 1426 1428 1427 1428 1429 1430 1431 1433 1435 1439 1442 1447 1451 1455 1459 1463 1466 1471 1476 1480 1483 1487 1490 1494 1498 1502 1505 1508 1510 1512 1513 1515 1516 1517 1519 1520 1520 1521
1434 1429 1419 1427 1434 1406 1411 1409 1401 1422 1428 1429 1431 1431 1431 1432 1432 1432 1433 1435 1438 1441 1446 1450 1454 1458 1461 1466 1471 1476 1480 1482 1486 1489 1493 1497 1501 1504 1507 1510 1511 1513 1514 1515 1516 1518 1519 1520 1520
1426 1424 1411 1406 1392 1394 1418 1406 1403 1428 1430 1432 1433 1433 1434 1433 1433 1434 1434 1436 1437 1440 1445 1449 1453 1457 1460 1465 1469 1475 1479 1482 1485 1489 1493 1497 1501 1504 1507 1509 1511 1511 1512 1513 1514 1516 1518 1519 1519
1426 1425 1429 1422 1409 1415 1399 1410 1423 1425 1429 1432 1433 1433 1434 1434 1434 1435 1435 1437 1438 1439 1444 1449 1453 1456 1460 1463 1467 1472 1477 1481 1485 1488 1493 1497 1500 1503 1506 1507 1509 1510 1511 1512 1513 1514 1516 1517 1517
1431 1432 1427 1424 1425 1410 1388 1388 1393 1424 1428 1432 1432 1433 1434 1435 1436 1436 1436 1437 1437 1439 1443 1448 1453 1454 1459 1462 1467 1471 1475 1481 1485 1487 1492 1497 1500 1502 1504 1505 1507 1508 1510 1511 1511 1513 1514 1515 1515
1430 1426 1431 1434 1424 1412 1403 1396 1420 1417 1424 1430 1433 1434 1434 1435 1435 1437 1436 1436 1437 1439 1441 1445 1450 1453 1457 1461 1466 1472 1477 1481 1485 1488 1489 1493 1498 1500 1501 1503 1504 1505 1507 1509 1510 1511 1512 1513 1513
1433 1430 1431 1429 1418 1424 1419 1409 1428 1427 1428 1430 1430 1433 1434 1434 1436 1436 1436 1437 1439 1440 1442 1444 1448 1453 1457 1461 1465 1469 1476 1480 1482 1486 1487 1492 1496 1497 1498 1500 1502 1502 1504 1506 1507 1508 1508 1510 1510